Location: Newark
(41.6500°N, 71.4833°W)
Time: 20:49:23
(UTC+00:00)

Transit 2A Rocket - Pass Details

Date: 04 February 2020
Orbit: 591 x 912 km, 66.7° (Epoch: 22 February)

Event Time Altitude Azimuth Distance (km) Brightness Sun altitude
Rises 15:49:14 0° 334° (NNW) 3,048 7.6 29.8°
Reaches altitude 10° 15:51:33 10° 340° (NNW) 2,177 6.9 30.0°
Maximum altitude 15:56:22 49° 56° (NE) 971 5.8 30.3°
Drops below altitude 10° 16:01:37 10° 130° (SE) 2,374 8.5 30.6°
Sets 16:04:14 0° 136° (SE) 3,352 9.2 30.7°
